FW6151 Weather Reports


Display with metric or nautical units.
time (UTC)temp
F
wind
direction
speed
MPH
gust
MPH
rain 1hr
in
rain 24hr
in
rain mn
in
humidity
%
barometer
mb
20260903103525 80 104 2.0 6.0 0.00 0.00 0.00 42 1025.4
20260903103021 80 127 0.0 5.0 0.00 0.00 0.00 46 1025.4
20260903102520 79 346 2.0 5.0 0.00 0.00 0.00 45 1025.5
20260903102020 78 219 1.0 5.0 0.00 0.00 0.00 48 1025.5
20260903101518 78 235 0.0 3.0 0.00 0.00 0.00 47 1025.4
20260903101017 78 209 0.0 5.0 0.00 0.00 0.00 48 1025.5
20260903100516 78 312 1.0 5.0 0.00 0.00 0.00 49 1025.5
20260903100016 78 168 0.0 5.0 0.00 0.00 0.00 48 1025.6
20260903095514 78 135 1.0 7.0 0.00 0.00 0.00 49 1025.6
20260903095014 78 191 1.0 4.0 0.00 0.00 0.00 49 1025.7
20260903094513 78 103 1.0 7.0 0.00 0.00 0.00 49 1025.7
20260903094013 78 98 1.0 4.0 0.00 0.00 0.00 49 1025.8
20260903093513 77 120 1.0 4.0 0.00 0.00 0.00 49 1025.8
20260903093012 77 140 1.0 4.0 0.00 0.00 0.00 50 1026.0
20260903092513 77 169 0.0 4.0 0.00 0.00 0.00 50 1025.8
20260903092011 77 169 0.0 3.0 0.00 0.00 0.00 49 1025.8
20260903091508 77 166 0.0 5.0 0.00 0.00 0.00 51 1025.8
20260903091007 77 168 1.0 5.0 0.00 0.00 0.00 50 1026.0
20260903090505 76 176 0.0 3.0 0.00 0.00 0.00 52 1025.8
20260903090004 75 176 0.0 4.0 0.00 0.00 0.00 54 1025.8
20260903085503 75 132 0.0 4.0 0.00 0.00 0.00 54 1025.8
20260903085001 75 134 1.0 3.0 0.00 0.00 0.00 55 1025.9
20260903084601 74 127 0.0 2.0 0.00 0.00 0.00 56 1026.0
20260903084059 73 127 0.0 2.0 0.00 0.00 0.00 58 1025.8
20260903083601 72 127 0.0 3.0 0.00 0.00 0.00 60 1025.8
20260903083056 71 126 1.0 4.0 0.00 0.00 0.00 62 1025.7
20260903082554 70 126 1.0 4.0 0.00 0.00 0.00 64 1025.6
20260903082052 69 183 0.0 1.0 0.00 0.00 0.00 67 1025.7
20260903081551 68 241 0.0 2.0 0.00 0.00 0.00 69 1025.8
20260903081052 67 241 0.0 2.0 0.00 0.00 0.00 69 1026.0
20260903080548 67 241 0.0 2.0 0.00 0.00 0.00 72 1026.1
20260903080047 66 241 0.0 3.0 0.00 0.00 0.00 74 1026.1
20260903075544 65 240 0.0 3.0 0.00 0.00 0.00 75 1026.0
20260903075044 64 240 1.0 3.0 0.00 0.00 0.00 76 1025.9
20260903074601 64 249 0.0 0.0 0.00 0.00 0.00 77 1025.8
20260903074044 63 249 0.0 0.0 0.00 0.00 0.00 78 1025.7
20260903073544 62 249 0.0 0.0 0.00 0.00 0.00 79 1025.6
20260903073054 62 249 0.0 0.0 0.00 0.00 0.00 80 1025.6
20260903072543 62 249 0.0 1.0 0.00 0.00 0.00 81 1025.6
20260903072043 61 249 0.0 2.0 0.00 0.00 0.00 81 1025.6
20260903071542 61 249 0.0 2.0 0.00 0.00 0.00 82 1025.6
20260903071041 60 249 0.0 2.0 0.00 0.00 0.00 82 1025.8
20260903070541 60 249 0.0 2.0 0.00 0.00 0.00 82 1025.8
20260903070041 59 254 0.0 0.0 0.00 0.00 0.00 83 1025.9
20260903065542 59 254 0.0 3.0 0.00 0.00 0.00 83 1025.8
20260903065040 59 254 0.0 3.0 0.00 0.00 0.00 83 1025.9
20260903064541 59 255 1.0 3.0 0.00 0.00 0.00 84 1025.9
20260903064040 58 308 0.0 3.0 0.00 0.00 0.00 84 1025.8
20260903063541 58 309 0.0 3.0 0.00 0.00 0.00 84 1025.8
20260903063040 58 309 1.0 3.0 0.00 0.00 0.00 84 1025.9
20260903062540 58 270 0.0 2.0 0.00 0.00 0.00 85 1025.8
20260903062040 57 302 0.0 3.0 0.00 0.00 0.00 85 1025.9
20260903061556 57 309 0.0 4.0 0.00 0.00 0.00 85 1026.0
20260903061038 57 314 1.0 4.0 0.00 0.00 0.00 85 1026.1
20260903060538 57 316 0.0 4.0 0.00 0.00 0.00 85 1026.0
20260903060038 57 322 1.0 4.0 0.00 0.00 0.00 85 1025.9
20260903055537 57 273 0.0 4.0 0.00 0.00 0.00 85 1025.8
20260903055035 57 306 1.0 4.0 0.00 0.00 0.00 85 1025.7
20260903054535 56 314 1.0 5.0 0.00 0.00 0.00 85 1025.7
20260903054035 56 314 1.0 5.0 0.00 0.00 0.00 85 1025.7
20260903053535 56 309 1.0 4.0 0.00 0.00 0.00 85 1025.6
20260903053036 57 317 1.0 4.0 0.00 0.00 0.00 85 1025.6
20260903052534 57 319 1.0 4.0 0.00 0.00 0.00 85 1025.6
20260903052033 57 311 0.0 3.0 0.00 0.00 0.00 85 1025.5
20260903051532 57 310 0.0 3.0 0.00 0.00 0.00 85 1025.4
20260903051030 57 311 1.0 4.0 0.00 0.00 0.00 85 1025.4
20260903050529 57 298 1.0 4.0 0.00 0.00 0.00 85 1025.4
20260903050032 57 317 1.0 3.0 0.00 0.00 0.00 84 1025.4
20260903045528 57 317 0.0 3.0 0.00 0.00 0.00 84 1025.4
20260903045028 57 313 0.0 2.0 0.00 0.00 0.00 84 1025.4
20260903044528 57 313 0.0 3.0 0.00 0.00 0.00 84 1025.4
20260903044027 57 315 1.0 3.0 0.00 0.00 0.00 84 1025.3
20260903043527 57 315 0.0 4.0 0.00 0.00 0.00 84 1025.3
20260903043026 57 314 2.0 4.0 0.00 0.00 0.00 84 1025.3
20260903042528 57 311 2.0 4.0 0.00 0.00 0.00 84 1025.3
20260903042025 57 294 0.0 3.0 0.00 0.00 0.00 84 1025.2
20260903041531 57 295 1.0 3.0 0.00 0.00 0.00 84 1025.2
20260903041025 57 293 0.0 4.0 0.00 0.00 0.00 84 1025.2
20260903040524 57 292 0.0 4.0 0.00 0.00 0.00 84 1025.1
20260903040024 57 323 1.0 3.0 0.00 0.00 0.00 84 1025.1
20260903035523 57 312 1.0 4.0 0.00 0.00 0.00 84 1025.1
20260903035025 57 311 2.0 4.0 0.00 0.00 0.00 84 1025.2
20260903034523 58 311 0.0 0.0 0.00 0.00 0.00 83 1025.1
20260903034026 58 311 0.0 0.0 0.00 0.00 0.00 83 1025.2
20260903033522 58 311 0.0 0.0 0.00 0.00 0.00 83 1025.2
20260903033022 58 311 0.0 2.0 0.00 0.00 0.00 83 1025.2
20260903032522 58 311 0.0 2.0 0.00 0.00 0.00 83 1025.2
20260903032021 58 313 0.0 3.0 0.00 0.00 0.00 83 1025.2
20260903031525 58 313 0.0 3.0 0.00 0.00 0.00 83 1025.3
20260903031020 58 314 1.0 3.0 0.00 0.00 0.00 83 1025.3
20260903030520 58 314 2.0 4.0 0.00 0.00 0.00 83 1025.2
20260903030020 58 312 0.0 4.0 0.00 0.00 0.00 83 1025.3
20260903025524 58 312 0.0 3.0 0.00 0.00 0.00 82 1025.2
20260903025018 58 312 1.0 3.0 0.00 0.00 0.00 82 1025.2
20260903024519 58 311 0.0 2.0 0.00 0.00 0.00 82 1025.1
20260903024018 58 311 0.0 2.0 0.00 0.00 0.00 82 1025.0
20260903023517 58 281 0.0 0.0 0.00 0.00 0.00 82 1025.0
20260903023018 59 281 0.0 0.0 0.00 0.00 0.00 82 1025.2
20260903022517 59 281 0.0 0.0 0.00 0.00 0.00 82 1025.1
20260903022016 59 281 0.0 0.0 0.00 0.00 0.00 82 1025.1
20260903021518 59 281 0.0 0.0 0.00 0.00 0.00 82 1025.1
20260903021016 59 281 0.0 0.0 0.00 0.00 0.00 81 1025.1
20260903020515 59 281 0.0 0.0 0.00 0.00 0.00 81 1025.1
20260903020031 59 281 0.0 0.0 0.00 0.00 0.00 81 1025.2
20260903015514 59 284 0.0 0.0 0.00 0.00 0.00 81 1025.2
20260903015014 59 284 0.0 3.0 0.00 0.00 0.00 81 1025.2
20260903014514 59 284 0.0 2.0 0.00 0.00 0.00 81 1025.2
20260903014016 59 290 0.0 2.0 0.00 0.00 0.00 81 1025.2
20260903013514 59 290 0.0 2.0 0.00 0.00 0.00 80 1025.2
20260903013013 60 290 0.0 2.0 0.00 0.00 0.00 81 1025.2
20260903012516 60 294 0.0 2.0 0.00 0.00 0.00 81 1025.2
20260903012011 60 294 0.0 3.0 0.00 0.00 0.00 80 1025.2
20260903011511 60 295 1.0 3.0 0.00 0.00 0.00 80 1025.2
20260903011011 60 294 1.0 3.0 0.00 0.00 0.00 80 1025.2
20260903010510 60 294 0.0 3.0 0.00 0.00 0.00 80 1025.2
20260903010012 60 294 0.0 2.0 0.00 0.00 0.00 80 1025.0
20260903005509 60 294 0.0 2.0 0.00 0.00 0.00 79 1025.0
20260903005010 60 294 0.0 2.0 0.00 0.00 0.00 79 1025.0
20260903004508 60 296 0.0 3.0 0.00 0.00 0.00 79 1025.0
20260903004008 61 296 0.0 3.0 0.00 0.00 0.00 79 1024.9
20260903003507 61 296 0.0 3.0 0.00 0.00 0.00 79 1024.9
20260903003008 61 296 0.0 2.0 0.00 0.00 0.00 79 1024.9
20260903002506 61 296 0.0 2.0 0.00 0.00 0.00 79 1024.9
20260903002010 61 296 0.0 2.0 0.00 0.00 0.00 79 1024.9
20260903001505 61 298 0.0 1.0 0.00 0.00 0.00 79 1024.9
20260903001007 61 298 0.0 3.0 0.00 0.00 0.00 79 1024.8
20260903000503 61 298 0.0 3.0 0.00 0.00 0.00 78 1024.8
20260903000003 62 297 0.0 2.0 0.00 0.00 0.00 78 1024.8
20260902235503 62 297 0.0 4.0 0.00 0.00 0.00 78 1024.8
20260902235002 62 304 2.0 4.0 0.00 0.00 0.00 78 1024.8
20260902234500 62 303 0.0 0.0 0.00 0.00 0.00 78 1024.7
20260902234105 62 303 0.0 0.0 0.00 0.00 0.00 78 1024.6
20260902233603 62 303 0.0 0.0 0.00 0.00 0.00 78 1024.7
20260902233100 62 303 0.0 0.0 0.00 0.00 0.00 77 1024.7
20260902232559 62 303 0.0 0.0 0.00 0.00 0.00 77 1024.6
20260902232101 63 303 0.0 0.0 0.00 0.00 0.00 77 1024.7
20260902231558 63 303 0.0 0.0 0.00 0.00 0.00 77 1024.7
20260902231057 63 303 0.0 0.0 0.00 0.00 0.00 77 1024.6
20260902230556 63 303 0.0 0.0 0.00 0.00 0.00 76 1024.6
20260902230100 63 303 0.0 0.0 0.00 0.00 0.00 76 1024.5
20260902225555 63 302 0.0 0.0 0.00 0.00 0.00 75 1024.5
20260902225057 63 301 0.0 1.0 0.00 0.00 0.00 75 1024.5
20260902224559 64 325 0.0 1.0 0.00 0.00 0.00 75 1024.5
20260902224052 64 329 0.0 1.0 0.00 0.00 0.00 75 1024.5
20260902223552 64 329 0.0 0.0 0.00 0.00 0.00 75 1024.5
20260902223051 64 329 0.0 0.0 0.00 0.00 0.00 75 1024.6
20260902222549 64 329 0.0 2.0 0.00 0.00 0.00 74 1024.7
20260902222049 65 329 0.0 2.0 0.00 0.00 0.00 74 1024.7
20260902221548 65 329 0.0 1.0 0.00 0.00 0.00 73 1024.7
20260902221047 65 329 0.0 1.0 0.00 0.00 0.00 73 1024.7
20260902220547 65 329 0.0 1.0 0.00 0.00 0.00 73 1024.7
20260902220046 65 329 0.0 2.0 0.00 0.00 0.00 73 1024.6
20260902215545 65 329 0.0 4.0 0.00 0.00 0.00 73 1024.6
20260902215044 65 329 0.0 6.0 0.00 0.00 0.00 73 1024.6
20260902214548 66 317 3.0 6.0 0.00 0.00 0.00 72 1024.5
20260902214045 66 313 0.0 4.0 0.00 0.00 0.00 72 1024.4
20260902213546 66 313 2.0 4.0 0.00 0.00 0.00 71 1024.2
20260902213042 66 313 1.0 3.0 0.00 0.00 0.00 71 1024.2
20260902212542 67 312 0.0 0.0 0.00 0.00 0.00 70 1024.3
20260902212042 67 312 0.0 0.0 0.00 0.00 0.00 70 1024.3
20260902211543 67 312 0.0 0.0 0.00 0.00 0.00 70 1024.2
20260902211041 67 312 0.0 3.0 0.00 0.00 0.00 70 1024.4
20260902210541 67 312 0.0 3.0 0.00 0.00 0.00 69 1024.3
20260902210040 67 312 1.0 3.0 0.00 0.00 0.00 69 1024.3
20260902205540 68 312 0.0 3.0 0.00 0.00 0.00 68 1024.2
20260902205043 68 312 2.0 3.0 0.00 0.00 0.00 68 1024.2
20260902204542 69 311 0.0 1.0 0.00 0.00 0.00 67 1024.2
20260902204039 69 311 0.0 2.0 0.00 0.00 0.00 66 1024.1
20260902203541 69 311 0.0 2.0 0.00 0.00 0.00 66 1024.1
20260902203039 69 311 0.0 1.0 0.00 0.00 0.00 65 1024.0
20260902202540 70 311 0.0 1.0 0.00 0.00 0.00 63 1023.9
20260902202040 70 312 0.0 0.0 0.00 0.00 0.00 63 1023.9
20260902201547 71 312 0.0 0.0 0.00 0.00 0.00 63 1023.9
20260902201038 71 312 0.0 0.0 0.00 0.00 0.00 63 1023.9
20260902200539 71 312 0.0 0.0 0.00 0.00 0.00 62 1023.9
20260902200044 72 312 0.0 0.0 0.00 0.00 0.00 61 1023.8
20260902195538 72 312 0.0 0.0 0.00 0.00 0.00 60 1023.8
20260902195037 72 312 0.0 0.0 0.00 0.00 0.00 60 1023.9
20260902194549 73 312 0.0 0.0 0.00 0.00 0.00 59 1023.9
20260902194040 73 312 0.0 0.0 0.00 0.00 0.00 58 1023.8
20260902193540 73 312 0.0 0.0 0.00 0.00 0.00 58 1023.8
20260902193038 74 312 0.0 0.0 0.00 0.00 0.00 57 1023.8
20260902192538 74 312 0.0 0.0 0.00 0.00 0.00 56 1023.7
20260902192037 74 312 0.0 0.0 0.00 0.00 0.00 55 1023.8
20260902191537 74 312 0.0 0.0 0.00 0.00 0.00 55 1023.7
20260902191036 74 312 0.0 0.0 0.00 0.00 0.00 55 1023.7
20260902190537 75 312 0.0 1.0 0.00 0.00 0.00 54 1023.6
20260902190036 75 312 0.0 1.0 0.00 0.00 0.00 53 1023.5
20260902185536 75 312 0.0 2.0 0.00 0.00 0.00 53 1023.4
20260902185035 75 312 0.0 2.0 0.00 0.00 0.00 53 1023.4
20260902184540 75 318 0.0 1.0 0.00 0.00 0.00 53 1023.4
20260902184035 75 318 0.0 2.0 0.00 0.00 0.00 53 1023.4
20260902183636 76 319 0.0 1.0 0.00 0.00 0.00 52 1023.3
20260902183035 76 321 0.0 1.0 0.00 0.00 0.00 52 1023.3
20260902182535 76 320 0.0 4.0 0.00 0.00 0.00 52 1023.3
20260902182039 76 320 0.0 4.0 0.00 0.00 0.00 51 1023.2
20260902181539 76 298 0.0 4.0 0.00 0.00 0.00 51 1023.2
20260902181035 76 298 0.0 4.0 0.00 0.00 0.00 51 1023.2
20260902180534 77 190 0.0 1.0 0.00 0.00 0.00 51 1023.2
20260902180036 77 190 0.0 2.0 0.00 0.00 0.00 51 1023.1
20260902175534 77 190 0.0 3.0 0.00 0.00 0.00 50 1023.1
20260902175034 77 190 0.0 3.0 0.00 0.00 0.00 50 1023.0
20260902174534 77 190 0.0 5.0 0.00 0.00 0.00 50 1023.0
20260902174034 77 244 0.0 3.0 0.00 0.00 0.00 50 1022.9
20260902173536 77 345 0.0 3.0 0.00 0.00 0.00 50 1022.8
20260902173034 77 324 0.0 3.0 0.00 0.00 0.00 50 1022.8
20260902172533 77 329 0.0 4.0 0.00 0.00 0.00 50 1022.8
20260902172037 77 316 0.0 4.0 0.00 0.00 0.00 49 1022.7
20260902171534 78 236 0.0 4.0 0.00 0.00 0.00 49 1022.7
20260902171032 78 256 0.0 2.0 0.00 0.00 0.00 49 1022.8
20260902170533 78 214 1.0 4.0 0.00 0.00 0.00 49 1022.7
20260902170032 78 344 0.0 4.0 0.00 0.00 0.00 48 1022.7
20260902165532 78 298 1.0 4.0 0.00 0.00 0.00 48 1022.7
20260902165031 78 38 0.0 4.0 0.00 0.00 0.00 48 1022.7
20260902164533 78 298 1.0 4.0 0.00 0.00 0.00 48 1022.7
20260902164032 78 286 0.0 6.0 0.00 0.00 0.00 48 1022.6
20260902163532 78 238 2.0 6.0 0.00 0.00 0.00 47 1022.5
20260902163034 79 164 0.0 9.0 0.00 0.00 0.00 47 1022.6
20260902162531 79 319 2.0 9.0 0.00 0.00 0.00 47 1022.6
20260902162031 79 176 0.0 4.0 0.00 0.00 0.00 47 1022.6
20260902161537 79 176 1.0 4.0 0.00 0.00 0.00 47 1022.6
20260902161031 79 165 1.0 4.0 0.00 0.00 0.00 47 1022.6
20260902160533 79 332 1.0 9.0 0.00 0.00 0.00 47 1022.6
20260902160030 80 262 2.0 9.0 0.00 0.00 0.00 46 1022.6
20260902155531 80 355 2.0 9.0 0.00 0.00 0.00 46 1022.6
20260902155030 80 235 3.0 7.0 0.00 0.00 0.00 46 1022.6
20260902154530 80 323 2.0 8.0 0.00 0.00 0.00 46 1022.5
20260902154030 80 9 2.0 6.0 0.00 0.00 0.00 46 1022.5
20260902153530 81 179 1.0 5.0 0.00 0.00 0.00 45 1022.4
20260902153030 81 348 1.0 5.0 0.00 0.00 0.00 45 1022.4
20260902152530 81 174 0.0 3.0 0.00 0.00 0.00 45 1022.5
20260902152029 81 174 1.0 5.0 0.00 0.00 0.00 45 1022.5
20260902151531 81 219 1.0 5.0 0.00 0.00 0.00 44 1022.5
20260902151029 81 294 0.0 3.0 0.00 0.00 0.00 44 1022.4
20260902150528 82 156 0.0 5.0 0.00 0.00 0.00 44 1022.5
20260902150031 82 30 2.0 5.0 0.00 0.00 0.00 43 1022.5
20260902145528 82 348 1.0 7.0 0.00 0.00 0.00 44 1022.5
20260902145027 82 108 2.0 9.0 0.00 0.00 0.00 43 1022.6
20260902144528 82 351 2.0 5.0 0.00 0.00 0.00 43 1022.5
20260902144028 81 346 1.0 5.0 0.00 0.00 0.00 43 1022.5
20260902143530 81 34 0.0 4.0 0.00 0.00 0.00 43 1022.7
20260902143027 81 178 2.0 5.0 0.00 0.00 0.00 43 1022.6
20260902142527 81 98 1.0 6.0 0.00 0.00 0.00 43 1022.6
20260902142027 81 29 1.0 5.0 0.00 0.00 0.00 43 1022.6
20260902141535 82 338 2.0 9.0 0.00 0.00 0.00 41 1022.6
20260902141026 82 313 1.0 9.0 0.00 0.00 0.00 41 1022.5
20260902140526 82 126 3.0 9.0 0.00 0.00 0.00 40 1022.6
20260902140026 83 142 2.0 7.0 0.00 0.00 0.00 40 1022.6
20260902135525 82 91 0.0 7.0 0.00 0.00 0.00 41 1022.7
20260902135025 82 290 1.0 7.0 0.00 0.00 0.00 41 1022.7
20260902134535 81 351 1.0 4.0 0.00 0.00 0.00 41 1022.7
20260902134025 82 211 1.0 8.0 0.00 0.00 0.00 40 1022.7
20260902133525 82 331 2.0 7.0 0.00 0.00 0.00 39 1022.6
20260902133025 83 338 1.0 5.0 0.00 0.00 0.00 38 1022.7
20260902132529 82 135 2.0 5.0 0.00 0.00 0.00 37 1022.7
20260902132024 83 291 1.0 4.0 0.00 0.00 0.00 36 1022.8
20260902131522 82 177 1.0 6.0 0.00 0.00 0.00 38 1022.8
20260902131022 82 220 2.0 8.0 0.00 0.00 0.00 37 1022.8
20260902130525 82 301 1.0 8.0 0.00 0.00 0.00 36 1023.0
20260902130021 82 80 1.0 7.0 0.00 0.00 0.00 35 1023.0
20260902125521 82 209 3.0 7.0 0.00 0.00 0.00 36 1023.0
20260902125022 82 341 3.0 9.0 0.00 0.00 0.00 35 1023.0
20260902124521 82 188 1.0 9.0 0.00 0.00 0.00 36 1022.9
20260902124020 81 157 0.0 5.0 0.00 0.00 0.00 38 1023.0
20260902123520 81 191 1.0 5.0 0.00 0.00 0.00 39 1023.0
20260902123023 82 232 2.0 8.0 0.00 0.00 0.00 38 1023.1
20260902122522 82 309 2.0 5.0 0.00 0.00 0.00 38 1023.0
20260902122018 83 88 1.0 7.0 0.00 0.00 0.00 40 1023.1
20260902121517 82 113 1.0 7.0 0.00 0.00 0.00 38 1023.2
20260902121017 82 119 0.0 5.0 0.00 0.00 0.00 39 1023.1
20260902120517 82 135 2.0 5.0 0.00 0.00 0.00 39 1023.2
20260902120017 81 103 0.0 4.0 0.00 0.00 0.00 41 1023.1
20260902115521 81 321 1.0 9.0 0.00 0.00 0.00 41 1023.1
20260902115015 81 123 4.0 9.0 0.00 0.00 0.00 43 1023.0
20260902114516 81 185 2.0 6.0 0.00 0.00 0.00 43 1023.1
20260902114015 80 285 0.0 6.0 0.00 0.00 0.00 48 1023.2
20260902113514 80 275 2.0 6.0 0.00 0.00 0.00 45 1023.3
20260902113014 80 105 2.0 6.0 0.00 0.00 0.00 45 1023.4
20260902112515 81 258 1.0 6.0 0.00 0.00 0.00 44 1023.4
20260902112013 81 183 0.0 0.0 0.00 0.00 0.00 47 1023.4
20260902111512 80 183 0.0 2.0 0.00 0.00 0.00 46 1023.5
20260902111011 80 183 0.0 5.0 0.00 0.00 0.00 48 1023.6
20260902110511 79 144 0.0 5.0 0.00 0.00 0.00 48 1023.6
20260902110024 79 175 1.0 3.0 0.00 0.00 0.00 47 1023.7
20260902105508 79 163 0.0 2.0 0.00 0.00 0.00 48 1023.7
20260902105008 79 340 0.0 3.0 0.00 0.00 0.00 48 1023.7
20260902104524 78 188 0.0 4.0 0.00 0.00 0.00 47 1023.7
20260902104007 79 165 0.0 4.0 0.00 0.00 0.00 48 1023.8